This demonstration page uses our WeatherBlox Daily Observations layout. Learn more.

Left ArrowRight Arrow

39.01783, -85.05884

Hourly Observations for October 9, 2015

Temp ( °F °C ) Dew Point ( °F °C ) Humidity (%) Winds ( mph kmh ) Pressure ( in mb ) Visibility ( mi km ) Precip ( " mm )
12:52 am 00:52 Partly Cloudy 67 19.4 59 15 76 76 SW 3 6 29.97 1015 10 16 N/A
1:52 am 01:52 Mostly Clear 64 17.8 59 15 84 84 SSW 5 7 29.96 1015 10 16 N/A
2:52 am 02:52 Mostly Cloudy 65 18.3 59 15 81 81 N N/A 29.96 1015 10 16 N/A
3:52 am 03:52 Mostly Cloudy 62 16.7 59 15 90 90 SSW 3 6 29.95 1014 9 14 N/A
4:52 am 04:52 Partly Cloudy 63 17.2 59 15 87 87 SSW 7 11 29.94 1014 9 14 N/A
5:52 am 05:52 Cloudy 64 17.8 59 15 84 84 SSW 7 11 29.94 1014 9 14 N/A
6:52 am 06:52 Cloudy 65 18.3 59 15 81 81 SSW 8 13 29.94 1014 10 16 N/A
7:52 am 07:52 Mostly Cloudy 64 17.8 59 15 84 84 SW 7 11 29.96 1015 8 13 N/A
8:52 am 08:52 Mostly Cloudy 65 18.3 60 15.6 84 84 SW 7 11 29.98 1015 10 16 N/A
9:52 am 09:52 Mostly Cloudy 68 20 60 15.6 76 76 WSW 9 15 29.98 1015 9 14 N/A
10:52 am 10:52 Mostly Cloudy 71 21.7 61 16.1 71 71 W 10 17 29.98 1015 9 14 N/A
11:52 am 11:52 Mostly Cloudy 73 22.8 61 16.1 66 66 W 14 22 29.99 1016 10 16 N/A
12:52 pm 12:52 Cloudy 75 23.9 61 16.1 62 62 NW 14 22 30.00 1016 10 16 N/A
1:52 pm 13:52 Cloudy 71 21.7 60 15.6 68 68 NW 15 24 30.01 1016 9 14 N/A
2:52 pm 14:52 Cloudy 71 21.7 57 13.9 61 61 NNW 14 22 29.99 1016 9 14 N/A
3:52 pm 15:52 Cloudy 69 20.6 55 12.8 61 61 NNW 16 26 30.00 1016 10 16 N/A
4:52 pm 16:52 Cloudy 67 19.4 53 11.7 61 61 NNW 16 26 30.01 1016 10 16 N/A
5:52 pm 17:52 Cloudy 65 18.3 51 10.6 61 61 N 16 26 30.03 1017 10 16 N/A
6:52 pm 18:52 Cloudy 63 17.2 51 10.6 65 65 N 10 17 30.05 1018 10 16 N/A
7:52 pm 19:52 Cloudy 62 16.7 49 9.4 62 62 N 10 17 30.07 1018 10 16 N/A
8:52 pm 20:52 Cloudy 62 16.7 48 8.9 60 60 N 13 20 30.09 1019 10 16 N/A
9:52 pm 21:52 Cloudy 61 16.1 47 8.3 60 60 N 12 19 30.11 1020 10 16 N/A
10:52 pm 22:52 Cloudy 60 15.6 47 8.3 62 62 N 8 13 30.12 1020 10 16 N/A
11:52 pm 23:52 Mostly Cloudy 57 13.9 47 8.3 69 69 N 7 11 30.13 1020 10 16 N/A

Powered by AerisWeather